JA0BES-13 Weather Reports


time (UTC)temp
C
wind
direction
speed
KPH
gust
KPH
rain 1hr
cm
rain 24hr
cm
rain mn
cm
humidity
%
barometer
mb
20260504110427 13 148 0.0 1.6 0.00 0.00 0.56 76 1007.1
20260504100422 15 225 0.0 1.6 0.00 0.00 0.56 63 1004.7
20260504081418 18 245 1.6 11.3 0.00 0.00 0.56 53 1002.6
20260504080418 19 256 4.8 12.9 0.00 0.00 0.56 51 1002.5
20260504050411 22 195 1.6 8.0 0.00 0.00 0.56 73 998.1
20260504045411 22 132 1.6 4.8 0.00 0.00 0.56 74 998.0
20260504044411 22 180 0.0 1.6 0.00 0.00 0.56 76 998.0
20260504043411 22 148 0.0 3.2 0.00 0.00 0.56 76 998.0
20260504042410 22 225 0.0 0.0 0.00 0.00 0.56 76 997.8
20260504041410 23 159 0.0 0.0 0.00 0.00 0.56 76 997.8
20260504040409 23 182 0.0 1.6 0.00 0.00 0.56 76 997.4
20260504035409 23 215 0.0 3.2 0.00 0.00 0.56 76 997.3
20260504034408 23 135 1.6 1.6 0.00 0.00 0.56 78 997.2
20260504033408 23 189 0.0 3.2 0.00 0.00 0.56 79 997.3
20260504032408 23 135 0.0 1.6 0.00 0.00 0.56 80 997.3
20260504031408 23 180 0.0 3.2 0.00 0.00 0.56 81 997.6
20260504030407 23 132 0.0 1.6 0.00 0.00 0.56 83 997.6
20260504025407 23 141 0.0 1.6 0.00 0.00 0.51 86 997.4
20260504024406 23 180 0.0 1.6 0.00 0.00 0.51 88 997.3
20260504023406 22 135 0.0 1.6 0.00 0.00 0.51 90 997.6
20260504022406 22 165 0.0 1.6 0.00 0.00 0.51 91 997.7
20260504021406 22 225 0.0 1.6 0.00 0.00 0.51 94 998.0
20260504020405 21 270 0.0 4.8 0.00 0.00 0.51 94 998.4
20260504015405 21 250 0.0 4.8 0.00 0.00 0.51 96 998.3
20260504014404 21 128 1.6 4.8 0.00 0.00 0.51 97 998.2
20260504013404 21 162 0.0 3.2 0.00 0.00 0.51 97 998.4
20260504012404 20 159 0.0 1.6 0.00 0.00 0.51 98 998.6
20260504011403 20 180 0.0 6.4 0.00 0.00 0.51 97 998.7
20260504010403 20 125 3.2 6.4 0.00 0.00 0.51 98 998.6
20260504005403 20 94 6.4 6.4 0.00 0.00 0.51 100 998.6
20260504004402 20 211 0.0 1.6 0.00 0.00 0.51 100 998.8
20260504003402 19 173 0.0 1.6 0.00 0.00 0.51 100 998.9
20260504002401 19 164 0.0 1.6 0.00 0.00 0.51 100 998.7
20260504001401 18 184 0.0 0.0 0.00 0.00 0.51 100 998.7
20260504000401 18 180 0.0 1.6 0.00 0.00 0.51 100 998.5
20260503235401 17 211 0.0 3.2 0.00 0.00 0.51 100 998.6
20260503234400 17 135 1.6 4.8 0.00 0.00 0.51 100 998.6
20260503233400 17 148 1.6 4.8 0.00 0.00 0.51 100 998.6
20260503232359 17 130 1.6 3.2 0.00 0.00 0.51 100 998.8
20260503231359 17 119 1.6 3.2 0.00 0.00 0.51 100 998.7
20260503230359 16 180 0.0 1.6 0.00 0.00 0.51 100 998.5
20260503225359 16 166 0.0 1.6 0.00 0.00 0.51 100 998.5
20260503224358 16 225 0.0 3.2 0.00 0.00 0.51 100 998.3
20260503223358 16 180 0.0 1.6 0.00 0.00 0.51 100 998.3
20260503222357 16 180 0.0 0.0 0.00 0.00 0.51 100 998.2
20260503221357 16 225 0.0 0.0 0.00 0.00 0.51 100 998.4
20260503220357 16 180 0.0 0.0 0.00 0.00 0.51 100 998.6
20260503215356 16 225 0.0 0.0 0.00 0.00 0.51 100 998.4
20260503214356 16 225 0.0 0.0 0.00 0.00 0.51 100 998.2
20260503213356 15 225 0.0 0.0 0.00 0.00 0.51 100 998.1
20260503212355 15 135 0.0 0.0 0.00 0.00 0.51 100 998.1
20260503211355 15 135 0.0 1.6 0.00 0.00 0.51 100 997.9
20260503210354 15 225 0.0 0.0 0.00 0.00 0.48 100 998.0